カタログに戻る

FREGAT DEB

LostUNKNOWN
NORAD 45998·DEBRIS·🇷🇺 Russia

打ち上げ Jul 18, 2011 から Baikonur Cosmodrome

Loading…

次のパス (今後24時間)

TLE

古いSource: Space-Track

元期: Aug 17, 2020, 07:20 UTC

1 45998U 11037GZ  20230.30576997 -.00037900  00000-0 -10361+0 0  9991
2 45998  51.3253 200.9526 1390021 180.3713 179.6152 11.35062254  2720

AllMySatでFREGAT DEBをリアルタイム追跡

Download on the App Store